Simultaneous Nadir Overpasses (SNOs) Predictions

Prediction of SNOs between GOES-15 and TERRA Satellite Orbit:

Table of predicted SNOs for the next 14.0 days since TLE Epoch: 3/15/2014
Index Date Time (GOES-15) GOES-15 Lat,Lon TERRA Lat,Lon Distance(km) Time Diff (sec)
1 03/15/2014 07:09:37 -0.05,-134.46 0.82,-130.37 465.25 80
2 03/15/2014 19:30:52 0.05,-134.48 0.26,-135.53 119.12 80
3 03/17/2014 19:21:18 0.05,-134.37 -0.32,-132.55 206.88 80
4 03/18/2014 07:42:42 -0.05,-134.31 -0.78,-137.74 390.45 80
5 03/20/2014 07:30:29 -0.05,-134.19 -0.18,-134.77 65.92 80
6 03/22/2014 07:15:37 -0.05,-134.07 0.43,-131.81 257.36 80
7 03/22/2014 19:36:51 0.04,-134.07 0.68,-136.96 328.58 80
8 03/24/2014 19:24:41 0.04,-133.94 0.05,-134.00 6.60 80
9 03/26/2014 19:15:10 0.04,-133.81 -0.54,-131.04 314.63 80
10 03/27/2014 07:36:34 -0.03,-133.74 -0.54,-136.24 283.29 80




NCC Satellite Simultaneous Nadir Overpasses (SNOs) Prediction Service
